sat.trackr.live / text

‹ back to catalog

HAWK-9B

NORAD 59450 · 2024-066J

PAYLOAD ACTIVE UNKNOWN

§ Identity

Operator
Country
US
Launch date
2024-04-07
Launch site
AFETR
Launch vehicle
Mass (kg)
RCS (m²)

External: N2YO · Heavens-Above · Gunter

§ Orbital elements

Epoch: 2026-05-25T00:14:17.342016Z

Period
96.06 min
Inclination
45.6194°
Eccentricity
0.0003918
Mean motion
14.99055682 rev/d
Perigee alt
567.1 km
Apogee alt
572.5 km
Semi-major
6,947.9 km
B*
8.1718e-5
RAAN
37.9384°
Arg perigee
261.3553°
Mean anomaly
98.6884°
Rev number
11,635

§ Raw data

HAWK-9B1 59450U 24066J   26145.00992294  .00000775  00000+0  81718-4 0  99912 59450  45.6194  37.9384 0003918 261.3553  98.6884 14.99055682116352

JSON: /api/v1/satellites/59450 · /tle

For live sub-satellite position, see the globe view (requires WebGL).

§ Visibility from observer

Set your observer location to see the next 7 days of passes ≥ 10°. The values pass through the URL so the page stays shareable.

No JS? Fill the form by hand. The geolocation button needs JavaScript.